[[{"header":{"parameterUnit":"m.s-1","parameterCategory":1,"la1":30.2991,"la2":30.254,"lo1":-89.0895,"lo2":-89.0444,"dy":0.0017,"dx":0.0017,"nx":28,"ny":28,"refTime":"2024-12-15T09:00:00:Z","depth":0,"parameterNumber":2,"parameterNumberName":"U-component_of_WINDS"},"data":[0,0,0,0,0,0,0,0,0,0,0,0,0,0,0,0,0,0,0,0,0,0,0,0,0,0,0,0,0,0,0,0,0,0,0,0,0,0,0,0,0,0,0,0,0,0,0,0,0,0,0,0,0,0,0,0,0,0,-4.3535,-4.3536,0,-4.3571,-4.3571,-4.3571,-4.3497,-4.3495,-4.3493,-4.349,-4.3527,-4.353,-4.3533,0,0,0,0,0,0,0,0,0,0,0,0,0,-4.3407,-4.341,-4.3535,-4.3536,-4.3536,-4.3571,-4.3571,-4.3572,-4.3498,-4.3495,-4.3492,-4.3489,-4.3526,-4.353,-4.3534,0,0,0,0,0,0,0,0,0,0,0,0,0,-4.3455,-4.3411,-4.3535,-4.3504,-4.3501,-4.3571,-4.3571,-4.3572,-4.3498,-4.3495,-4.3491,-4.3488,-4.3525,-4.3529,-4.3534,-4.3636,0,0,-4.3549,-4.3551,0,0,0,0,0,0,0,0,-4.3452,-4.3459,-4.3508,-4.3506,-4.3503,-4.3526,-4.3539,-4.3593,-4.3499,-4.3499,-4.349,-4.3486,-4.353,-4.3534,-4.3548,-4.3638,-4.3639,-4.3549,-4.3552,-4.3554,-4.3556,0,0,0,0,0,0,0,-4.3449,-4.3457,-4.3549,-4.3509,-4.3506,-4.3489,-4.3491,-4.3549,-4.3534,-4.3499,-4.3494,-4.3499,-4.3528,-4.3544,-4.3549,-4.364,-4.3549,-4.3553,-4.3556,-4.3558,-4.3819,-4.3823,0,0,0,0,0,0,-4.3449,-4.3455,-4.3548,-4.355,-4.3468,-4.3494,-4.3497,-4.3522,-4.3533,-4.3532,-4.3502,-4.3495,-4.3537,-4.3543,-4.355,-4.3672,-4.3554,-4.3559,-4.3562,-4.3815,-4.382,-4.3825,0,0,0,0,0,0,-4.3447,-4.3458,-4.3547,-4.3501,-4.3511,-4.35,-4.3529,-4.3525,-4.3541,-4.3536,-4.3533,-4.3521,-4.3535,-4.3543,-4.3616,-4.3673,-4.3561,-4.3565,-4.3811,-4.3817,-4.3822,-4.3917,0,0,0,0,0,0,-4.3443,-4.3458,-4.3495,-4.3503,-4.3514,-4.3612,-4.3532,-4.3528,-4.3549,-4.3541,-4.3553,-4.3551,-4.3533,-4.3609,-4.3621,-4.3677,-4.3569,-4.3805,-4.3813,-4.382,-4.3909,-4.3926,-4.394,0,0,0,0,0,-4.3439,-4.352,-4.3498,-4.3509,-4.3561,-4.3615,-4.3622,-4.3598,-4.3554,-4.3593,-4.359,-4.3551,-4.3665,-4.3617,-4.363,-4.3688,-4.3802,-4.3811,-4.382,-4.3902,-4.3923,-4.394,0,0,0,0,0,0,-4.3518,-4.352,-4.3495,-4.3581,-4.3599,-4.3603,-4.365,-4.362,-4.365,-4.3641,-4.3611,-4.3615,-4.3695,-4.3698,-4.3646,-4.379,-4.3726,-4.3738,-4.3784,-4.3804,-4.3819,-4.3817,-4.3573,0,0,0,0,0,-4.3546,-4.3589,-4.3589,-4.3664,-4.3675,-4.3662,-4.3684,-4.3665,-4.3682,-4.3689,-4.3691,-4.371,-4.375,-4.3777,-4.3813,-4.391,-4.3913,-4.3956,-4.3972,-4.3985,-4.3996,-4.405,-4.4071,-4.3854,-4.3854,-4.3854,0,0,-4.3603,-4.3609,-4.3638,-4.3681,-4.3692,-4.3739,-4.3668,-4.372,-4.3755,-4.3697,-4.3767,-4.377,-4.3788,-4.3875,-4.3913,-4.3881,-4.4056,-4.3996,-4.4007,-4.4011,-4.4062,-4.4082,-4.4101,-4.386,-4.3859,-4.3858,0,0,-4.3731,-4.374,-4.3805,-4.3819,-4.3838,-4.3829,-4.3845,-4.3855,-4.3855,-4.3925,-4.3883,-4.3925,-4.3994,-4.401,-4.4027,-4.4167,-4.4133,-4.418,-4.4261,-4.4315,-4.4332,-4.4347,-4.4399,-4.4418,-4.419,-4.4191,-4.4191,0,-4.38,-4.3868,-4.3843,-4.3899,-4.392,-4.3871,-4.3938,-4.3953,-4.3983,-4.3999,-4.3963,-4.4051,-4.406,-4.4151,-4.4185,-4.42,-4.4219,-4.4178,-4.4332,-4.4346,-4.436,-4.4409,-4.4429,-4.4196,-4.4196,-4.4195,-4.4195,0,-4.3953,-4.4002,-4.4053,-4.4085,-4.4111,-4.4173,-4.4158,-4.4188,-4.4168,-4.4164,-4.4238,-4.4247,-4.4287,-4.4307,-4.4286,-4.4396,-4.4376,-4.4336,-4.4271,-4.4387,-4.4433,-4.4451,-4.4205,-4.4203,-4.4201,-4.4199,0,0,-4.413,-4.415,-4.4169,-4.4184,-4.4204,-4.4241,-4.4302,-4.4341,-4.4369,-4.4392,-4.4444,-4.4505,-4.447,-4.449,-4.4471,-4.4518,-4.4632,-4.4473,-4.4473,-4.4504,-4.4757,-4.4788,-4.481,-4.461,-4.4613,-4.4616,-4.4756,0,-4.4259,-4.4363,-4.4344,-4.4446,-4.4493,-4.4449,-4.4502,-4.4521,-4.452,-4.456,-4.4558,-4.4603,-4.4552,-4.4564,-4.4609,-4.4609,-4.4683,-4.4598,-4.4659,-4.4662,-4.4657,-4.4834,-4.4865,-4.4997,-4.4774,-4.4777,-4.4779,0,-4.4422,-4.4454,-4.4561,-4.4577,-4.4596,-4.4644,-4.468,-4.4719,-4.474,-4.4736,-4.4761,-4.4735,-4.4797,-4.4732,-4.4819,-4.4762,-4.4786,-4.4791,-4.4795,-4.4801,-4.4728,-4.4845,-4.5038,-4.5059,-4.4806,-4.4804,-4.4802,0,-4.4543,-4.4612,-4.4687,-4.4701,-4.472,-4.4756,-4.4766,-4.4783,-4.481,-4.4842,-4.4859,-4.4898,-4.4919,-4.4951,-4.4937,-4.489,-4.5028,-4.496,-4.5028,-4.5029,-4.5059,-4.5057,-4.526,-4.5073,-4.5072,-4.5072,-4.5071,0,-4.469,-4.4758,-4.4742,-4.4787,-4.4864,-4.4842,-4.4918,-4.4923,-4.494,-4.4987,-4.4951,-4.4996,-4.4975,-4.5019,-4.5008,-4.5084,-4.5093,-4.5093,-4.509,-4.5097,-4.5098,-4.5113,-4.5104,-4.5077,-4.5076,-4.5075,-4.5074,0,-4.4837,-4.4829,-4.4907,-4.4921,-4.4926,-4.4982,-4.4993,-4.5037,-4.5035,-4.5095,-4.5108,-4.5104,-4.5155,-4.5144,-4.5199,-4.5192,-4.5288,-4.5272,-4.5281,-4.5278,-4.5347,-4.5341,-4.5567,-4.5597,-4.5389,-4.5391,-4.5393,0,-4.4931,-4.4983,-4.5003,-4.5033,-4.5046,-4.5093,-4.5121,-4.5102,-4.5132,-4.5163,-4.5204,-4.5252,-4.5289,-4.5373,-4.5375,-4.5418,-4.5405,-4.5481,-4.5411,-4.5418,-4.5408,-4.5406,-4.5412,-4.5495,-4.5497,-4.5499,-4.5501,0,-4.51,-4.5095,-4.5135,-4.5177,-4.5211,-4.5242,-4.5269,-4.5296,-4.528,-4.5316,-4.5368,-4.5398,-4.5456,-4.5505,-4.5546,-4.5556,-4.5528,-4.5523,-4.5541,-4.555,-4.5554,-4.5555,-4.5321,-4.5518,-4.5516,-4.5515,-4.5514,-4.5513,-4.5225,-4.527,-4.5293,-4.5341,-4.536,-4.5388,-4.5431,-4.5435,-4.5479,-4.5525,-4.5512,-4.5572,-4.5596,-4.5648,-4.5664,-4.5712,-4.5683,-4.5709,-4.5716,-4.5723,-4.5733,-4.5546,-4.5719,-4.5718,-4.5718,-4.5717,-4.5717,0,-4.5394,-4.5407,-4.5451,-4.5493,-4.5532,-4.5502,-4.5532,-4.5566,-4.562,-4.5645,-4.5683,-4.5745,-4.5793,-4.5801,-4.5847,-4.5885,-4.5873,-4.5897,-4.5895,-4.5899,-4.5754,-4.5735,-4.5907,-4.5907,-4.5907,-4.5907,-4.5906,-4.5906,-4.5486,-4.5563,-4.5561,-4.5648,-4.5661,-4.572,-4.574,-4.5767,-4.5787,-4.5858,-4.5899,-4.5904,-4.5923,-4.5971,-4.6015,-4.6016,-4.6036,-4.6066,-4.6063,-4.5927,-4.5908,-4.589,-4.5872,-4.607,-4.607,-4.6203,-4.6205,-4.6206]},{"header":{"parameterUnit":"m.s-1","parameterCategory":1,"la1":30.2991,"la2":30.254,"lo1":-89.0895,"lo2":-89.0444,"dy":0.0017,"dx":0.0017,"nx":28,"ny":28,"refTime":"2024-12-15T09:00:00:Z","depth":0,"parameterNumber":3,"parameterNumberName":"V-component_of_WINDS"},"data":[0,0,0,0,0,0,0,0,0,0,0,0,0,0,0,0,0,0,0,0,0,0,0,0,0,0,0,0,0,0,0,0,0,0,0,0,0,0,0,0,0,0,0,0,0,0,0,0,0,0,0,0,0,0,0,0,0,0,-0.677,-0.6769,0,-0.6698,-0.6697,-0.6696,-0.6596,-0.6595,-0.6593,-0.6591,-0.652,-0.6519,-0.6519,0,0,0,0,0,0,0,0,0,0,0,0,0,-0.6821,-0.6821,-0.677,-0.6769,-0.6768,-0.6698,-0.6697,-0.6696,-0.6597,-0.6595,-0.6592,-0.6591,-0.652,-0.6519,-0.6519,0,0,0,0,0,0,0,0,0,0,0,0,0,-0.6779,-0.6821,-0.677,-0.671,-0.6704,-0.6698,-0.6697,-0.6696,-0.6597,-0.6594,-0.6592,-0.659,-0.652,-0.6519,-0.6519,-0.6567,0,0,-0.6517,-0.6517,0,0,0,0,0,0,0,0,-0.6782,-0.6777,-0.672,-0.6714,-0.6707,-0.6653,-0.6688,-0.6652,-0.6598,-0.6638,-0.6591,-0.6588,-0.6566,-0.6562,-0.6554,-0.6563,-0.656,-0.6517,-0.6517,-0.6517,-0.6517,0,0,0,0,0,0,0,-0.6785,-0.678,-0.6741,-0.6719,-0.6711,-0.6686,-0.6678,-0.6681,-0.6617,-0.6634,-0.6627,-0.6619,-0.6562,-0.6555,-0.6551,-0.6559,-0.6517,-0.6517,-0.6516,-0.6516,-0.6601,-0.6603,0,0,0,0,0,0,-0.6796,-0.6783,-0.6744,-0.6739,-0.6739,-0.6688,-0.6678,-0.6673,-0.6617,-0.6606,-0.6622,-0.6615,-0.6557,-0.6552,-0.6549,-0.6599,-0.6517,-0.6516,-0.6516,-0.6598,-0.6601,-0.6604,0,0,0,0,0,0,-0.6798,-0.6794,-0.6747,-0.6759,-0.6751,-0.6689,-0.6685,-0.6673,-0.6665,-0.6607,-0.6596,-0.6625,-0.6554,-0.6549,-0.6562,-0.6595,-0.6516,-0.6516,-0.6595,-0.6599,-0.6602,-0.6701,0,0,0,0,0,0,-0.68,-0.6795,-0.6813,-0.676,-0.6751,-0.6762,-0.6687,-0.6674,-0.6664,-0.6655,-0.6608,-0.6598,-0.6552,-0.6563,-0.6561,-0.6593,-0.6515,-0.6592,-0.6597,-0.6601,-0.6695,-0.6708,-0.6719,0,0,0,0,0,-0.6802,-0.6845,-0.6814,-0.681,-0.6772,-0.6764,-0.6758,-0.6705,-0.6668,-0.6685,-0.6647,-0.6599,-0.6592,-0.6565,-0.6563,-0.6594,-0.6589,-0.6595,-0.6601,-0.6689,-0.6705,-0.6719,0,0,0,0,0,0,-0.6904,-0.6837,-0.6802,-0.6829,-0.6803,-0.6747,-0.6767,-0.6724,-0.6708,-0.67,-0.6634,-0.6625,-0.6645,-0.6621,-0.6593,-0.6636,-0.6583,-0.6589,-0.6651,-0.6666,-0.6678,-0.6683,-0.6515,0,0,0,0,0,-0.693,-0.6929,-0.687,-0.6899,-0.6887,-0.683,-0.6824,-0.6785,-0.6755,-0.6744,-0.6707,-0.6681,-0.6671,-0.6667,-0.6656,-0.669,-0.6677,-0.671,-0.6723,-0.6733,-0.6738,-0.6752,-0.6765,-0.6623,-0.6623,-0.6622,0,0,-0.6983,-0.6946,-0.695,-0.6919,-0.6894,-0.6894,-0.6821,-0.6825,-0.6824,-0.6745,-0.6754,-0.6726,-0.6691,-0.6714,-0.6722,-0.6695,-0.6775,-0.674,-0.6749,-0.6749,-0.6759,-0.6773,-0.6785,-0.6626,-0.6626,-0.6625,0,0,-0.7079,-0.7052,-0.7072,-0.7048,-0.701,-0.6971,-0.6976,-0.6925,-0.6903,-0.6911,-0.6851,-0.6848,-0.6836,-0.6813,-0.6799,-0.6884,-0.6839,-0.6882,-0.6946,-0.696,-0.6971,-0.6981,-0.701,-0.7021,-0.6888,-0.6888,-0.6888,0,-0.7151,-0.7148,-0.7088,-0.7095,-0.7082,-0.7008,-0.7028,-0.7007,-0.6968,-0.6961,-0.693,-0.691,-0.6882,-0.6897,-0.6917,-0.691,-0.6912,-0.6888,-0.6975,-0.6984,-0.6992,-0.7018,-0.7029,-0.6893,-0.6893,-0.6892,-0.6892,0,-0.7236,-0.7235,-0.7256,-0.7218,-0.7208,-0.7221,-0.7163,-0.716,-0.712,-0.7084,-0.7092,-0.7055,-0.7034,-0.7034,-0.6997,-0.7044,-0.7027,-0.6987,-0.6932,-0.7012,-0.7036,-0.7045,-0.6901,-0.6899,-0.6898,-0.6896,0,0,-0.7397,-0.7324,-0.7333,-0.7313,-0.7265,-0.7263,-0.7272,-0.725,-0.7248,-0.7223,-0.7228,-0.7217,-0.7177,-0.7163,-0.7121,-0.7134,-0.7201,-0.7091,-0.7089,-0.7112,-0.7248,-0.7279,-0.7291,-0.717,-0.7172,-0.7173,-0.725,0,-0.7484,-0.7494,-0.7439,-0.7465,-0.7462,-0.739,-0.7397,-0.7368,-0.7334,-0.7326,-0.7289,-0.7281,-0.7231,-0.7221,-0.723,-0.7191,-0.7227,-0.7185,-0.7174,-0.7174,-0.7184,-0.7304,-0.7337,-0.7412,-0.7259,-0.7261,-0.7262,0,-0.7587,-0.7565,-0.759,-0.7537,-0.7534,-0.7542,-0.7516,-0.751,-0.7474,-0.7448,-0.743,-0.7382,-0.7386,-0.7334,-0.7337,-0.731,-0.7301,-0.7281,-0.7283,-0.728,-0.7223,-0.7303,-0.7434,-0.7445,-0.7276,-0.7275,-0.7274,0,-0.77,-0.7677,-0.7688,-0.7674,-0.7614,-0.7621,-0.7596,-0.7558,-0.7547,-0.7524,-0.7516,-0.7495,-0.7484,-0.7468,-0.7414,-0.7382,-0.7424,-0.7368,-0.7401,-0.7403,-0.7414,-0.7414,-0.7545,-0.741,-0.741,-0.741,-0.741,0,-0.7802,-0.782,-0.7738,-0.7745,-0.7761,-0.7698,-0.7716,-0.7684,-0.765,-0.7649,-0.7586,-0.7586,-0.7516,-0.7508,-0.7466,-0.7474,-0.747,-0.7449,-0.7437,-0.7454,-0.7457,-0.7448,-0.7441,-0.7413,-0.7412,-0.7411,-0.7411,0,-0.7932,-0.7878,-0.7885,-0.7826,-0.7811,-0.7826,-0.7776,-0.7779,-0.774,-0.7739,-0.7735,-0.7674,-0.7661,-0.7606,-0.758,-0.7552,-0.7574,-0.7552,-0.7586,-0.7578,-0.7614,-0.7611,-0.7744,-0.7757,-0.7615,-0.7617,-0.7618,0,-0.8,-0.8012,-0.7954,-0.7948,-0.7925,-0.7917,-0.7905,-0.7842,-0.7832,-0.7791,-0.7799,-0.778,-0.7762,-0.7745,-0.7698,-0.7677,-0.7654,-0.7701,-0.765,-0.7666,-0.7653,-0.7652,-0.7652,-0.7713,-0.7714,-0.7716,-0.7717,0,-0.8127,-0.8099,-0.8085,-0.806,-0.8047,-0.8025,-0.7999,-0.7998,-0.7927,-0.7919,-0.7904,-0.789,-0.7862,-0.7844,-0.7815,-0.7789,-0.7741,-0.7733,-0.774,-0.7757,-0.7775,-0.7764,-0.7615,-0.7731,-0.7729,-0.7728,-0.7728,-0.7727,-0.8228,-0.8234,-0.8193,-0.8178,-0.8151,-0.8127,-0.8127,-0.8086,-0.8073,-0.8045,-0.8008,-0.7997,-0.7959,-0.7915,-0.7892,-0.7882,-0.7855,-0.7865,-0.7868,-0.7871,-0.7878,-0.7777,-0.7877,-0.7876,-0.7876,-0.7875,-0.7875,0,-0.835,-0.832,-0.8306,-0.8271,-0.8259,-0.8213,-0.8181,-0.8174,-0.8165,-0.8133,-0.8116,-0.8097,-0.8079,-0.8029,-0.8006,-0.8007,-0.7985,-0.8003,-0.8002,-0.7996,-0.7904,-0.79,-0.8022,-0.8022,-0.8022,-0.8022,-0.8022,-0.8022,-0.8413,-0.8419,-0.8386,-0.8378,-0.8347,-0.8336,-0.8321,-0.8298,-0.8272,-0.8254,-0.8238,-0.8205,-0.8166,-0.8138,-0.8118,-0.8104,-0.8098,-0.8124,-0.8102,-0.8017,-0.8003,-0.799,-0.7986,-0.8123,-0.8123,-0.8195,-0.8196,-0.8196]}]]